Location: Bremen
(53.0793°N, 8.8017°E)
Time: 10:27:45
(UTC+01:00)

Transit 2A - Pass Details

Date: 01 December 2021
Orbit: 591 x 966 km, 66.7° (Epoch: 26 January)

Event Time Altitude Azimuth Distance (km) Brightness Sun altitude
Exits shadow 04:57:14 25° 352° (N) 1,834 7.8 -28.7°
Drops below altitude 10° 05:02:13 10° 43° (NE) 2,712 9.3 -27.9°
Sets 05:05:21 0° 57° (ENE) 3,664 10.3 -27.5°
